Location: Ku?niki
(51.4449°N, 17.8974°E)
Time: 03:48:29
(UTC+00:00)

Cosmos 1626 - Pass Details

Date: 18 September 2020
Orbit: 490 x 495 km, 82.5° (Epoch: 22 October)

Event Time Altitude Azimuth Distance (km) Brightness Sun altitude
Rises 18:37:24 0° 357° (N) 2,592 6.1 -16.3°
Reaches altitude 10° 18:39:44 10° 9° (N) 1,703 5.0 -16.6°
Enters shadow 18:42:57 29° 68° (ENE) 935 3.1 -17.0°
